Showing default

YAOGAN-46, 66313

Orbit data source: Space-Track

YAOGAN-46, 66313 is a payload satellite owned by PLA SSF (CN) that was launched on Mon, 03 Nov 2025 UTC via a CHANG ZHENG 7A launch vehicle from the Wenchang Satellite Launch Center (WSC). Payload-class satellites include a variety of spacecraft equipped with specific instruments for various scientific and technological missions. These include communications satellites like Starlink; space stations such as the ISS; scientific satellites like the Hubble; Earth observation satellites from companies like Planet Labs, Umbra, and HawkEye 360; GPS; miniature CubeSats for education and research; and military/defense satellites.

Loading next visibility...
Identifier
66313, 2025-250A
Orbit
Active
Country
Flag of CNCN / PRC
Related business
Manufacturer
CAST
Mission
Operational Defense Imaging
Bus & Motor
YG46, LAE
Mass
~5,000 kg wet, ~2,500 kg dry
Launch date (UTC)
2025-11-03 (8 months ago)
Launch vehicle
CHANG ZHENG 7A
Launch site
Wenchang Satellite Launch Center (WSC)
Object type
Payload
Rocket body
Debris
Shape & HBR
Box + 2 Pan, 1.1 m
Radar Cross Section
34.063 m², Large (>1 m²)

Expand to show TLE details & history
Last TLE update: 22 hours ago

TLE from 22 hours ago
0 YAOGAN-46
1 66313U 25250A   26170.98085518 -.00000038  00000-0  00000-0 0  9995
2 66313  20.0869 336.0277 0004604 138.1856 221.8664  5.31203728 12249
Epoch: 2026-06-19T23:32Z
TLE epoch observation values (Epoch: 2026-06-19T23:32:25.887Z)
Latitude
-0.00001°
Longitude
74.71504°
Altitude
7,500.246 km
Speed
5.359 km/s
True Right ascension
22h 24m 05s
True Declination
0° 00' 00"
Sunlit
Object was in daylight at epoch
Visualization orbit readout
Latitude
Unknown
Longitude
Unknown
Altitude
Unknown
Speed
Unknown
Apparent Right ascension
Unknown
Apparent Declination
Unknown
Sunlit
N/A
Visualization observer readout
Local Sidereal Time
08:57:36
Azimuth
Unknown
Elevation
Unknown
Doppler factor
Unknown
Orbital elements
Apogee altitude
7,505.707 km
Perigee altitude
7,492.928 km
Semi-major axis
13,877.454 km
Eccentricity
0.00046
Inclination
20.0869°
RAAN
336.0277°
Arg. of periapsis
138.1856°
True anomaly
221.8312°
Mean anomaly
221.8664°
Eccentric anomaly
221.8488°
Mean motion
1.32763 °/min
Orbital period
271.16 mins
BSTAR
0
Loading maneuver chart data...
Computing Atmospheric mass density...
Loading historical data...
Loading historical data...
Loading historical data...
Loading historical data...
Loading historical data...
Loading historical data...
Loading historical data...
Other satellites on launch #250 in the year 2025 (2025-11-03 UTC)

Documentation

Showing up to 5 results
|